Regional Weather Roundup
Issued by NWS

Home | Current Version | Previous Version | Graphics & Text | Print | Product List | Glossary On
Versions: 1 2 3 4 5 6 7 8 9 10 11 12 13 14 15 16 17 18 19 20 21 22 23 24 25 26 27 28 29 30 31 32 33 34 35 36 37 38 39 40 41 42 43 44 45 46 47 48 49 50
000
ASUS43 KMKX 211700
RWRWI

WISCONSIN REGIONAL WEATHER ROUNDUP
NATIONAL WEATHER SERVICE MILWAUKEE/SULLIVAN WI
1100 AM CST SUN DEC 21 2014

NOTE: "FAIR" INDICATES FEW OR NO CLOUDS BELOW 12,000 FEET WITH NO
SIGNIFICANT WEATHER AND/OR OBSTRUCTIONS TO VISIBILITY.

WIZ001-002-006>008-014>016-023>028-211800-
NORTHWEST WISCONSIN

CITY           SKY/WX    TMP DP  RH WIND       PRES   REMARKS
SUPERIOR ARPT  CLOUDY    33  30  91 S7        29.90F FOG     WCI  26
ASHLAND        CLOUDY    34  29  82 S5        29.92F WCI  30
HAYWARD        LGT SNOW  32  29  88 S8        29.90F VSB 3/4 WCI  25
SIREN          LGT SNOW  32  31  97 SE7       29.89F WCI  26
CUMBERLAND     LGT SNOW  32  30  93 SE13      29.89F VSB 1   WCI  22
RICE LAKE      LGT SNOW  32  31  97 SE12      29.93F VSB 1   WCI  23
CHETEK         LGT SNOW  31  31  99 SE12G18   29.92F VSB 1   WCI  22
LADYSMITH      LGT SNOW  32  31  96 S9        29.96F WCI  24
EAU CLAIRE     NOT AVBL
MENOMONIE      LGT SNOW  33  32  98 SE9       29.93F VSB 3/4 WCI  25
NEW RICHMOND   LGT SNOW  33  33 100 S9        29.89F WCI  25
OSCEOLA        LGT SNOW  33  33 100 SE14      29.90F WCI  24
$$

WIZ003>005-009-010-017-018-211800-
NORTH CENTRAL WISCONSIN

CITY           SKY/WX    TMP DP  RH WIND       PRES   REMARKS
MANITOWISH WTR CLOUDY    29  29  98 S9G16     29.94F FOG     WCI  21
ARBOR VITAE    CLOUDY    32  30  92 S10G18    29.96F FOG     WCI  23
WOODRUFF       CLOUDY    32  30  92 S10G18    29.96F FOG     WCI  23
RHINELANDER    CLOUDY    29  27  92 S10       29.98F FOG     WCI  20
EAGLE RIVER    CLOUDY    29  28  96 S7        29.97F FOG     WCI  22
LAND O LAKES   CLOUDY    30  28  92 S8G16     29.97F FOG     WCI  23
PHILLIPS       CLOUDY    30  28  95 SE10G17   29.95F FOG     WCI  21
TOMAHAWK       CLOUDY    29  28  94 CALM      29.99F FOG
MEDFORD        FOG       30  29  98 SE13      29.96F VSB 3/4 WCI  20
MERRILL        CLOUDY    30  30  99 S6        30.00F FOG     WCI  24
$$

WIZ029-030-035-036-043>047-211800-
CENTRAL WISCONSIN

CITY           SKY/WX    TMP DP  RH WIND       PRES   REMARKS
WAUSAU         CLOUDY    31  29  92 SE9       30.00F FOG     WCI  23
MOSINEE        LGT SNOW  30  30 100 SE8       30.02F FOG     WCI  23
MARSHFIELD     FOG       32  30  92 S14       29.99F VSB 1/2 WCI  22
STEVENS POINT  CLOUDY    30  29  96 S6        30.04F FOG     WCI  24
WAUPACA        CLOUDY    34  32  90 SE8       30.07F FOG     WCI  27
WAUTOMA        NOT AVBL
WISC RAPIDS    CLOUDY    33  30  88 S8        30.03F FOG     WCI  26
CAMP DOUGLAS   NOT AVBL
$$

WIZ011>013-019>022-031-037>040-048>050-211800-
NORTHEAST WISCONSIN

CITY           SKY/WX    TMP DP  RH WIND       PRES   REMARKS
ANTIGO         FOG       28  28 100 S10       30.02F VSB 1/4 WCI  18
SHAWANO        CLOUDY    34  31  88 S5        30.09F FOG     WCI  30
OCONTO         CLOUDY    32  30  93 S6        30.11F WCI  26
STURGEON BAY   CLOUDY    34  30  86 S9G16     30.12F WCI  26
GREEN BAY      CLOUDY    33  30  88 S9        30.10F FOG     WCI  25
MANITOWOC      CLOUDY    36  34  93 S13       30.13F WCI  27
APPLETON       CLOUDY    32  32 100 S12       30.08F FOG     WCI  23
CLINTONVILLE   CLOUDY    32  30  93 S9        30.09S FOG     WCI  24
OSHKOSH        CLOUDY    34  31  88 S8        30.08F FOG     WCI  27
$$

WIZ032>034-041-042-053>061-211800-
SOUTHWEST WISCONSIN

CITY           SKY/WX    TMP DP  RH WIND       PRES   REMARKS
LA CROSSE      CLOUDY    37  34  89 S9        29.98F FOG     WCI  30
SPARTA         CLOUDY    35  33  94 SE9       30.02S FOG     WCI  27
VIROQUA        CLOUDY    33  33 100 S12G17    29.98S VSB 1/2 WCI  25
BOSCOBEL       CLOUDY    38  34  85 S9        30.03F FOG     WCI  31
PRAIRIE DU CHI CLOUDY    38  33  84 SE8       30.02F HAZE    WCI  32
PLATTEVILLE    CLOUDY    35  34  94 S8G17     30.06F WCI  29
$$

WIZ056-057-062-063-064-067-068-211800-
SOUTH CENTRAL WISCONSIN

CITY           SKY/WX    TMP DP  RH WIND       PRES   REMARKS
REEDSBURG      CLOUDY    34  32  93 S8        30.04F FOG     WCI  27
BARABOO/DELLS  CLOUDY    34  32  93 S15       30.04F FOG     WCI  24
LONE ROCK      NOT AVBL
MINERAL POINT  CLOUDY    36  34  93 S13       30.04F FOG     WCI  27
MADISON        CLOUDY    34  31  88 S13       30.08F FOG     WCI  25
MIDDLETON      CLOUDY    35  34  94 S9G16     30.09F WCI  28
WATERTOWN      CLOUDY    33  32  95 S7        30.11F FOG     WCI  27
MONROE         CLOUDY    32  32 100 S9        30.08F FOG     WCI  24
JANESVILLE     CLOUDY    36  32  87 S10       30.12S FOG     WCI  28
$$

WIZ051-052-058>065-066-070>072-211800-
SOUTHEAST WISCONSIN

CITY           SKY/WX    TMP DP  RH WIND       PRES   REMARKS
MILWAUKEE      CLOUDY    36  29  75 S8        30.14F WCI  30
WAUKESHA       CLOUDY    32  28  86 S6        30.14F FOG     WCI  26
MILWAUKEE/TIMM CLOUDY    36  28  75 S7        30.14F WCI  30
RACINE         CLOUDY    35  29  78 S13       30.16F WCI  26
BURLINGTON     CLOUDY    32  29  89 S7        30.14F WCI  26
KENOSHA        CLOUDY    35  29  78 S13       30.15F WCI  26
FOND DU LAC    CLOUDY    34  30  85 S13       30.09F FOG     WCI  25
SHEBOYGAN      CLOUDY    34  30  85 S12       30.12F WCI  25
WEST BEND      CLOUDY    34  30  86 S7        30.12F WCI  28
JUNEAU         CLOUDY    33  31  92 SE12      30.11F FOG     WCI  24
$$

LSZ147-162-211800-
LAKE SUPERIOR

STATION/POSITION TIME  TEMP    WIND        PRES    WAVE
                       AIR SEA DIR/SP/G            HT/PER
                 (UTC) (F)     (DEG/KT/KT) (MB)    (FT/S)
DEVILS ISLAND    1600   33     130/  5/  9 1015.1F
PORT WING        1600   33      CALM  /  3 1013.9
SAXON HARBOR     1600   35     190/  6/ 11 1014.2
$$

LMZ867-665-643>646-211800-
LAKE MICHIGAN

STATION/POSITION TIME  TEMP    WIND        PRES    WAVE
                       AIR SEA DIR/SP/G            HT/PER
                 (UTC) (F)     (DEG/KT/KT) (MB)    (FT/S)
CHAMBERS ISLAND  1600   34     160/  3/  8 1020.3S
NORTHPORT PIER   1600   36     160/  6/ 12 1020.7
SISTER BAY       1513          180/  8/ 10   N/A
ALGOMA LAKESHORE 1615          230/ 15/ 18   N/A
KEWAUNEE LAKESHO 1600   35     200/ 12/ 13 1019.6F
SHEBOYGAN LAKESH 1600   36 34  180/ 21/ 23 1021.5F
PORT WASHINGTON  1600   35     190/  9/ 13 1021.7
MILWAUKEE LAKESH 1600   35     190/ 11/ 13   N/A
KENOSHA   LAKESH 1600   34     170/ 17/ 19 1021.3F
$$

TC  - TEMPERATURE IN CELSIUS
VSB - VISIBILITY IN STATUTE MILES
WCI - WIND CHILL INDEX
HX  - HEAT INDEX



USA.gov is the U.S. government's official web portal to all federal, state and local government web resources and services.